Wind_Speed
8 8 8 7 6 5 4 4 5 6 6 6 6 7 7 8 9 8 8 9 10 12 13 14 16 17 19 20 22 23 25 27 28 30 31 33 34 35 37 38 39 40 41 42 43 44 44 44 44
11 11 10 9 9 9 7 7 7 7 7 6 6 6 6 7 8 9 10 11 12 14 15 16 17 19 20 22 24 26 28 30 31 33 35 37 39 40 42 43 44 46 47 48 49 49 49 49 49
14 14 12 11 12 11 9 8 8 7 6 5 4 5 6 7 9 10 12 13 14 15 16 18 19 21 23 25 27 29 31 33 35 37 39 41 43 45 46 48 49 50 52 53 54 55 55 56 56
15 15 13 13 12 11 9 8 7 6 5 4 4 6 7 9 11 12 14 15 16 17 19 20 22 24 26 28 31 33 35 37 38 40 42 44 46 48 49 51 53 55 56 57 59 60 61 61 62
15 14 14 12 10 9 8 6 5 4 4 5 7 9 10 11 13 14 16 16 18 19 21 22 24 27 29 32 34 35 37 39 40 42 44 46 48 50 52 55 57 60 61 63 65 66 67 68 68
13 12 12 10 7 6 4 4 4 5 6 8 9 11 12 13 14 16 17 18 19 21 23 25 28 30 33 35 37 38 39 41 42 45 47 50 52 55 58 60 63 65 67 69 70 72 73 74 74
9 8 7 6 3 3 4 6 7 8 9 11 11 12 13 14 15 17 18 20 22 24 27 29 31 34 36 37 39 40 42 44 46 49 52 55 58 61 64 66 69 71 73 74 76 77 78 79 80
4 3 3 3 4 6 8 9 10 11 11 12 13 13 15 16 17 19 21 23 25 28 30 33 35 36 38 39 40 42 44 47 50 53 56 60 63 66 69 71 74 76 79 82 84 87 89 90 91
4 5 6 7 8 10 11 12 13 13 13 14 15 15 16 18 19 21 24 26 29 31 33 35 37 38 39 41 43 45 48 51 54 57 61 64 67 69 71 74 77 81 84 89 93 97 100 103 104
8 9 10 12 12 13 13 13 13 13 14 15 15 16 17 19 21 24 26 29 31 33 35 36 37 39 41 43 45 48 51 55 57 61 63 66 69 71 74 77 81 86 91 96 101 106 110 113 115
11 12 13 13 14 13 13 13 13 14 14 15 16 18 19 21 24 26 29 31 33 35 36 37 38 40 43 45 48 51 54 57 60 63 66 68 71 73 77 81 86 92 98 104 109 113 115 117 117
12 12 12 13 13 12 12 13 13 14 14 15 16 19 21 23 26 29 31 32 34 35 37 38 40 42 45 48 51 54 57 60 62 65 67 69 72 76 81 86 93 99 105 110 112 112 109 106 103
10 10 11 11 11 12 13 13 14 14 15 16 18 20 22 24 27 29 31 33 34 36 38 40 42 45 47 50 53 56 59 62 65 67 69 71 75 80 85 92 99 105 108 108 104 98 93 88 85
9 10 10 10 11 12 13 13 14 14 16 17 19 21 23 25 27 29 32 34 36 38 40 42 44 47 49 52 55 57 60 63 66 68 70 74 79 85 91 98 103 104 102 96 89 85 82 81 81
9 9 10 10 11 12 13 13 14 15 16 17 19 20 22 24 27 29 32 35 38 40 42 44 46 48 51 53 56 59 61 64 67 69 72 77 83 90 96 101 102 98 91 85 82 81 81 81 81
9 9 10 10 11 12 12 11 13 14 15 16 18 20 22 25 28 31 33 36 39 41 44 46 47 50 52 54 56 59 62 65 68 71 75 81 87 94 99 100 96 89 83 80 80 80 80 79 79
9 9 9 10 12 13 13 12 12 14 15 16 19 21 24 26 29 32 35 37 40 43 45 46 48 50 53 55 57 60 63 66 69 72 77 84 91 96 98 95 88 82 79 78 79 78 77 77 75
8 9 10 10 11 12 13 13 13 15 16 18 20 22 24 27 30 32 35 38 40 43 45 47 49 51 53 55 58 61 64 67 70 75 80 87 93 96 95 89 82 79 77 77 76 75 75 74 71
9 9 9 10 10 11 12 13 14 16 18 19 21 23 25 27 30 32 35 38 41 44 46 48 49 51 53 55 58 62 65 68 72 77 83 89 94 94 91 83 78 76 76 75 75 76 73 69 66
8 8 8 8 9 11 12 13 14 16 18 20 22 24 26 29 31 34 38 41 43 46 48 50 51 52 54 56 59 63 66 69 73 79 84 91 93 92 86 79 76 75 74 73 75 75 71 65 62
7 7 7 7 8 9 11 12 13 16 18 20 23 25 28 31 34 37 40 43 46 49 52 54 54 55 56 58 61 64 67 70 75 80 86 91 92 88 82 76 75 74 74 74 75 74 68 62 56
8 7 7 7 7 8 9 10 12 15 18 20 23 26 29 33 36 40 42 45 48 51 54 57 58 59 59 60 63 66 69 72 76 81 87 90 89 84 79 75 74 73 73 74 75 71 65 60 53
8 7 7 7 7 8 9 10 12 14 17 20 23 26 29 33 37 41 44 47 50 53 56 59 62 63 63 63 65 67 70 73 77 82 87 89 86 81 76 73 73 72 73 74 73 68 62 57 51
10 9 8 8 8 8 10 12 13 16 18 20 23 26 29 33 37 41 46 49 52 55 58 61 64 66 67 67 67 69 71 74 77 82 87 88 84 78 74 72 72 72 72 73 71 66 61 54 48
11 11 10 9 9 9 10 12 14 16 18 21 24 27 30 34 38 42 47 51 54 57 60 63 66 69 70 70 70 71 73 75 78 83 86 86 82 76 72 71 71 71 72 73 70 64 59 52 45
13 13 12 12 11 11 11 12 14 16 19 22 25 29 33 36 39 43 48 52 55 58 61 64 67 70 73 73 72 73 74 76 79 83 86 85 81 75 71 70 70 70 72 72 69 64 59 51 44
16 15 15 15 14 14 14 15 15 17 20 23 27 30 34 37 41 44 49 53 56 60 62 65 68 71 74 75 75 74 75 76 79 83 85 84 79 74 70 70 70 70 71 71 68 63 58 50 43
19 18 18 17 17 18 17 19 20 21 24 26 29 32 35 39 43 46 50 53 57 61 64 66 69 72 75 77 77 76 76 77 79 82 84 83 78 73 69 69 69 69 70 69 67 63 58 50 43
22 21 21 21 21 22 22 21 23 24 27 29 33 36 39 42 45 48 51 54 57 61 64 67 69 72 75 78 78 77 76 77 79 82 84 82 78 72 69 68 68 68 69 68 66 62 57 49 42
25 24 24 24 24 24 26 24 26 27 28 30 33 37 40 43 47 49 52 55 58 61 64 67 69 72 75 78 79 78 77 77 79 81 83 82 77 72 68 67 67 67 68 67 65 61 55 48 42
Wind_Direction
113 120 124 126 123 106 91 89 90 91 86 77 66 55 46 36 27 18 359 343 331 322 317 316 317 317 316 314 313 311 310 309 307 306 304 302 301 299 297 295 293 291 289 287 286 285 283 280 278
106 109 112 115 113 101 99 96 95 93 91 84 69 50 32 15 359 346 336 327 322 320 320 320 320 319 318 317 315 313 311 309 307 306 304 303 301 300 298 295 293 291 289 287 285 284 282 280 278
102 102 102 103 95 96 99 98 97 95 87 73 50 22 358 343 334 329 325 323 323 324 324 323 323 322 320 318 315 313 310 309 307 305 304 302 301 299 297 295 293 291 289 287 285 283 281 279 277
99 100 100 97 93 94 95 94 89 81 67 40 6 342 331 324 323 323 324 325 326 326 326 325 324 322 320 317 314 312 311 309 308 306 304 303 301 300 298 296 294 292 290 288 285 283 281 278 276
99 99 98 94 90 88 85 79 66 42 9 347 334 324 319 319 320 323 325 325 325 325 324 324 322 320 318 315 314 313 312 310 309 307 305 304 302 301 299 297 296 294 292 289 287 284 282 279 276
98 96 95 92 83 72 54 27 359 337 324 319 317 314 314 317 320 322 322 322 322 322 322 321 320 319 317 316 315 315 314 312 310 309 307 306 305 303 302 300 298 296 293 291 288 286 283 280 277
90 83 79 76 56 14 338 324 316 313 309 309 310 310 312 316 320 321 321 320 320 320 320 320 319 318 317 317 316 316 314 313 312 311 310 308 307 305 304 301 299 297 294 292 289 286 283 281 278
68 46 30 3 327 312 309 306 305 304 304 307 310 313 315 320 321 321 320 320 320 320 319 319 319 318 318 318 318 317 316 315 314 312 311 309 308 306 304 302 300 298 296 294 291 289 286 284 280
341 329 324 317 310 304 304 303 304 306 307 311 315 319 319 320 321 320 319 319 319 319 319 320 319 319 319 319 319 318 317 316 314 313 311 309 307 306 304 302 300 299 297 295 293 291 288 286 283
314 311 310 309 307 304 304 305 306 309 311 314 318 320 320 319 319 318 318 318 318 319 319 320 319 320 320 320 319 318 317 315 313 312 310 308 307 306 304 303 301 300 298 296 293 291 288 285 283
307 307 307 306 306 306 307 309 311 314 315 316 320 321 321 319 318 317 317 318 319 320 320 320 320 320 320 320 319 318 316 314 313 311 310 309 308 307 306 304 302 300 298 296 293 290 288 286 284
309 309 309 309 310 311 313 316 317 318 318 318 320 320 320 319 318 317 317 319 320 321 322 321 321 321 321 320 319 317 316 314 313 311 310 310 309 308 307 306 304 302 299 296 293 291 289 287 285
318 318 317 317 318 319 320 321 320 320 320 320 320 320 320 319 318 318 320 322 323 324 324 323 322 321 320 319 317 316 315 314 313 312 312 311 310 310 309 308 306 304 301 299 297 295 293 290 286
328 327 326 325 324 324 325 324 323 322 322 321 321 321 320 320 320 322 324 325 326 326 325 323 322 320 319 318 317 316 315 315 314 314 314 313 313 313 312 310 308 306 305 303 302 300 297 294 290
335 334 332 330 328 327 327 327 325 323 323 322 322 322 322 323 326 327 328 328 328 327 325 323 321 320 318 317 317 316 316 317 316 316 316 316 316 316 314 313 311 310 309 308 306 304 301 298 294
336 337 335 332 329 328 330 334 326 326 328 328 328 329 330 332 333 333 333 332 330 328 326 323 321 319 318 318 318 318 319 319 319 319 319 319 319 318 317 316 315 314 313 311 309 308 305 302 298
334 334 337 333 332 333 337 345 338 336 340 339 339 340 339 339 339 338 336 335 332 330 327 325 322 320 319 319 320 321 322 322 322 322 322 322 322 321 320 320 319 318 316 315 313 312 309 307 303
337 338 341 342 338 342 347 352 353 348 351 350 349 348 346 346 346 344 341 340 337 334 331 328 325 322 321 322 323 324 324 324 325 325 325 325 324 324 324 323 322 321 320 319 318 316 314 312 308
333 335 341 345 347 352 356 359 1 360 359 358 357 355 354 354 353 351 348 346 344 341 337 333 329 326 325 325 326 327 327 327 327 327 327 327 327 328 327 326 325 324 324 323 322 321 319 316 313
321 327 338 348 350 356 1 3 5 7 5 3 1 359 358 357 356 354 352 350 348 346 343 340 335 332 330 329 330 330 330 329 329 329 329 330 331 331 330 329 328 328 327 326 326 325 323 321 319
306 319 334 345 352 359 3 5 5 8 6 3 1 359 357 355 353 352 351 350 349 348 347 345 342 338 335 334 333 333 333 332 331 331 331 333 334 333 332 332 331 331 330 330 330 329 327 324 322
297 308 322 334 343 350 358 4 6 7 4 1 359 358 356 354 352 351 350 349 349 349 348 348 346 343 340 337 336 336 335 334 334 334 334 335 336 336 335 334 334 334 334 334 333 332 330 327 324
288 296 306 318 327 336 345 355 1 1 1 359 358 357 356 355 353 352 351 350 349 349 349 349 349 347 344 341 339 338 338 337 336 336 337 338 339 338 337 337 337 337 337 337 336 335 333 329 325
280 284 289 300 315 318 335 346 349 354 355 357 358 357 357 357 355 353 352 351 350 350 349 349 349 349 346 344 342 341 340 339 338 338 339 341 341 340 339 340 340 340 340 340 339 338 336 331 326
271 276 283 287 296 310 328 336 340 346 348 351 354 356 357 356 355 354 353 352 351 350 350 350 350 349 348 346 344 343 341 340 340 340 342 344 344 343 342 342 342 343 343 343 342 341 339 335 329
264 268 272 281 294 306 315 321 329 337 343 346 349 351 353 354 354 353 353 352 351 350 350 350 350 350 349 348 346 344 343 342 341 342 344 346 346 345 344 345 345 345 345 345 345 345 343 339 333
259 261 269 276 286 294 302 309 318 328 336 341 344 347 348 349 351 352 351 351 351 350 350 349 350 350 350 349 347 346 344 343 343 344 346 348 348 347 347 347 347 348 348 348 348 347 346 343 339
256 260 265 273 281 287 296 306 316 323 328 334 339 342 343 345 347 349 349 349 349 349 349 349 349 350 350 350 348 347 346 344 344 345 348 349 349 349 349 349 349 350 350 351 351 350 350 348 344
255 259 264 271 279 287 294 304 310 318 324 329 333 336 338 341 343 345 346 347 347 348 348 348 349 349 350 350 349 348 347 345 345 347 349 351 351 350 350 351 351 352 353 353 354 353 353 352 350
256 258 264 270 277 284 292 303 306 313 319 323 327 330 334 336 339 341 343 344 345 346 347 348 348 349 349 350 350 349 348 346 346 348 350 352 353 352 352 352 352 353 354 355 356 356 356 356 356
Height
5871 5872 5873 5875 5876 5877 5876 5877 5877 5878 5878 5879 5879 5879 5880 5880 5881 5882 5880 5878 5877 5876 5876 5874 5873 5872 5871 5869 5868 5866 5864 5863 5861 5859 5857 5855 5853 5851 5850 5848 5846 5844 5842 5841 5839 5838 5837 5836 5836
5873 5874 5875 5876 5876 5876 5878 5878 5879 5879 5880 5880 5880 5880 5880 5880 5880 5879 5878 5877 5876 5875 5874 5873 5871 5870 5868 5867 5865 5863 5861 5858 5856 5854 5851 5849 5847 5844 5842 5840 5838 5836 5834 5832 5831 5829 5828 5827 5826
5875 5876 5878 5878 5878 5878 5879 5880 5880 5880 5881 5881 5881 5881 5881 5880 5879 5878 5877 5876 5875 5873 5872 5870 5869 5867 5865 5863 5861 5859 5856 5854 5851 5848 5845 5842 5839 5837 5834 5831 5828 5826 5824 5822 5820 5818 5817 5816 5815
5878 5879 5880 5881 5880 5880 5881 5882 5882 5882 5882 5881 5881 5881 5880 5880 5879 5877 5876 5874 5873 5871 5869 5868 5866 5864 5862 5859 5856 5854 5850 5847 5844 5841 5838 5834 5831 5828 5824 5821 5818 5815 5812 5809 5807 5805 5803 5802 5801
5881 5882 5882 5882 5882 5883 5883 5883 5883 5882 5882 5882 5881 5881 5879 5878 5877 5875 5874 5872 5870 5869 5867 5865 5862 5860 5857 5854 5851 5847 5844 5840 5837 5833 5829 5825 5822 5818 5814 5810 5806 5802 5798 5795 5792 5789 5787 5786 5785
5884 5884 5884 5884 5884 5884 5884 5884 5883 5883 5882 5881 5880 5879 5878 5877 5875 5873 5871 5870 5868 5866 5864 5861 5858 5855 5851 5847 5844 5840 5836 5832 5828 5824 5820 5815 5811 5806 5801 5797 5792 5787 5783 5779 5775 5772 5769 5767 5765
5887 5886 5885 5885 5885 5885 5885 5884 5883 5882 5881 5880 5879 5878 5876 5874 5873 5871 5869 5867 5864 5862 5860 5857 5853 5849 5845 5841 5837 5832 5828 5823 5819 5814 5809 5804 5799 5793 5788 5782 5777 5771 5766 5761 5756 5751 5748 5745 5743
5888 5888 5886 5886 5885 5885 5884 5883 5881 5880 5879 5878 5876 5875 5874 5872 5869 5867 5865 5863 5861 5858 5855 5851 5847 5843 5838 5834 5829 5825 5820 5815 5809 5804 5798 5793 5786 5780 5773 5767 5760 5753 5746 5740 5733 5727 5722 5718 5715
5888 5889 5886 5886 5885 5884 5882 5881 5880 5878 5877 5875 5874 5873 5871 5869 5866 5864 5862 5859 5856 5853 5849 5845 5841 5836 5831 5827 5822 5816 5811 5806 5800 5794 5788 5781 5775 5768 5760 5752 5744 5736 5727 5718 5709 5700 5692 5686 5681
5888 5887 5886 5884 5883 5882 5881 5879 5877 5876 5874 5873 5871 5870 5868 5865 5863 5861 5858 5855 5852 5848 5844 5840 5834 5829 5825 5819 5814 5809 5803 5797 5791 5784 5778 5770 5763 5755 5746 5737 5727 5717 5707 5695 5684 5672 5662 5653 5647
5886 5885 5884 5882 5881 5880 5878 5877 5875 5874 5872 5871 5869 5866 5864 5862 5859 5857 5853 5850 5847 5843 5838 5833 5828 5823 5818 5812 5806 5801 5795 5788 5782 5774 5767 5758 5750 5741 5731 5721 5710 5698 5684 5670 5656 5642 5628 5618 5610
5884 5883 5882 5880 5879 5877 5876 5874 5873 5871 5870 5868 5866 5864 5861 5859 5855 5852 5849 5845 5841 5837 5832 5827 5822 5816 5810 5804 5798 5792 5786 5779 5771 5764 5755 5747 5737 5727 5715 5702 5688 5673 5656 5639 5622 5607 5594 5584 5575
5882 5881 5880 5878 5877 5875 5874 5872 5870 5869 5867 5865 5863 5860 5858 5855 5852 5848 5844 5840 5836 5831 5826 5821 5815 5809 5803 5797 5791 5784 5777 5769 5761 5752 5743 5733 5722 5710 5697 5681 5663 5643 5623 5603 5587 5573 5561 5551 5544
5881 5879 5878 5876 5875 5873 5872 5870 5868 5866 5864 5862 5859 5857 5854 5851 5847 5844 5839 5835 5831 5826 5820 5814 5808 5802 5796 5789 5783 5775 5768 5759 5750 5740 5729 5718 5705 5691 5674 5655 5635 5613 5592 5573 5557 5544 5533 5523 5515
5879 5878 5877 5875 5873 5872 5871 5868 5866 5864 5861 5859 5857 5854 5851 5847 5843 5839 5835 5830 5825 5820 5815 5808 5802 5795 5788 5782 5774 5766 5757 5748 5737 5726 5714 5701 5686 5669 5650 5628 5605 5584 5564 5548 5534 5520 5508 5497 5486
5878 5877 5876 5874 5872 5870 5870 5868 5864 5861 5858 5856 5853 5850 5847 5843 5839 5835 5830 5825 5820 5815 5809 5802 5795 5788 5781 5773 5765 5756 5746 5735 5724 5712 5698 5683 5666 5646 5625 5602 5579 5559 5542 5526 5512 5498 5484 5471 5459
5877 5876 5874 5873 5870 5868 5866 5864 5861 5858 5856 5853 5850 5847 5844 5840 5836 5831 5826 5821 5815 5809 5803 5796 5788 5780 5772 5764 5755 5745 5734 5723 5710 5697 5682 5665 5645 5624 5601 5578 5557 5539 5522 5506 5491 5476 5460 5446 5433
5875 5874 5872 5871 5868 5866 5863 5861 5859 5855 5853 5850 5847 5844 5841 5837 5832 5827 5822 5817 5811 5804 5797 5789 5781 5773 5764 5754 5745 5734 5722 5709 5696 5681 5665 5646 5626 5603 5580 5558 5538 5521 5504 5488 5472 5456 5441 5423 5407
5874 5872 5871 5869 5866 5864 5861 5859 5857 5853 5850 5848 5845 5842 5838 5834 5829 5824 5818 5812 5806 5799 5791 5783 5774 5764 5755 5745 5734 5722 5710 5696 5682 5666 5648 5629 5607 5584 5561 5540 5522 5504 5488 5470 5453 5437 5421 5404 5387
5873 5871 5869 5868 5865 5862 5860 5857 5855 5852 5849 5846 5843 5839 5835 5831 5826 5821 5814 5808 5801 5794 5785 5776 5766 5756 5746 5735 5724 5711 5698 5684 5668 5651 5633 5612 5589 5566 5544 5525 5507 5490 5473 5455 5437 5419 5402 5387 5371
5871 5870 5868 5866 5863 5861 5859 5856 5853 5850 5847 5844 5841 5836 5832 5827 5822 5816 5810 5803 5796 5787 5779 5769 5758 5747 5736 5725 5713 5700 5686 5671 5655 5637 5617 5596 5573 5550 5529 5511 5493 5476 5458 5441 5423 5404 5386 5373 5360
5869 5868 5866 5864 5862 5860 5859 5856 5852 5848 5845 5842 5838 5834 5829 5824 5818 5812 5805 5798 5790 5781 5772 5761 5750 5739 5727 5715 5702 5688 5674 5659 5642 5624 5604 5582 5559 5536 5516 5498 5481 5464 5446 5428 5409 5390 5373 5358 5348
5867 5866 5864 5862 5860 5858 5856 5853 5851 5846 5844 5840 5836 5831 5826 5820 5814 5808 5800 5792 5784 5775 5765 5754 5742 5730 5717 5705 5691 5677 5662 5647 5630 5612 5591 5569 5546 5525 5505 5488 5470 5453 5435 5417 5398 5379 5363 5348 5337
5865 5864 5862 5860 5858 5857 5853 5850 5847 5844 5840 5836 5832 5827 5822 5817 5810 5803 5795 5787 5777 5768 5757 5746 5734 5722 5708 5695 5681 5667 5652 5636 5619 5600 5580 5558 5536 5515 5496 5479 5461 5443 5425 5407 5388 5370 5354 5340 5329
5862 5862 5860 5858 5856 5854 5850 5847 5845 5841 5837 5832 5828 5823 5818 5812 5805 5798 5790 5781 5771 5761 5750 5739 5726 5714 5700 5686 5672 5657 5642 5626 5608 5590 5569 5548 5527 5507 5489 5471 5453 5436 5417 5399 5380 5363 5347 5333 5322
5859 5858 5858 5856 5853 5850 5847 5845 5843 5838 5834 5829 5824 5818 5812 5806 5800 5792 5784 5775 5765 5755 5744 5732 5719 5706 5692 5678 5663 5648 5633 5616 5599 5580 5560 5539 5518 5499 5481 5464 5446 5429 5411 5392 5373 5356 5341 5327 5316
5855 5854 5853 5851 5848 5846 5844 5841 5839 5834 5830 5825 5820 5814 5808 5802 5795 5787 5778 5769 5759 5749 5737 5725 5712 5699 5685 5670 5655 5639 5624 5607 5590 5571 5551 5530 5510 5492 5474 5457 5440 5423 5405 5386 5368 5351 5336 5322 5311
5852 5850 5849 5846 5844 5842 5840 5836 5833 5829 5825 5820 5815 5809 5803 5797 5789 5781 5772 5763 5753 5743 5731 5719 5706 5692 5678 5663 5648 5632 5616 5599 5582 5564 5544 5524 5504 5485 5468 5452 5435 5418 5401 5382 5364 5347 5332 5318 5307
5847 5845 5843 5841 5839 5837 5834 5834 5828 5823 5818 5813 5808 5802 5796 5790 5782 5775 5766 5757 5747 5737 5725 5713 5699 5686 5672 5657 5641 5625 5609 5593 5575 5557 5538 5518 5499 5480 5464 5447 5431 5415 5397 5379 5362 5345 5330 5317 5306
5840 5840 5838 5837 5835 5831 5827 5829 5822 5818 5813 5808 5803 5797 5790 5784 5776 5769 5760 5751 5741 5730 5719 5707 5694 5680 5666 5651 5635 5619 5603 5586 5569 5551 5532 5513 5494 5476 5459 5444 5428 5411 5395 5378 5361 5345 5331 5318 5307